Find Starlink 4085

NORAD ID: 53262 Int'l Des: 2022-086 Owner: SPXS Country: US Constellation: starlink operational
LEOCIRCULAR

現在のビュー

3D地球を読み込み中...

About Starlink 4085

Starlink 4085 (NORAD 53262) is a starlink constellation satellite (v1.5) launched Jul 24, 2022 by SPXS of US. It operates in LEO, CIRCULAR orbit with a mass of 297.00 kg.

Starlink 4085について

説明を読み込み中...

次回通過

Passes for default location (London). Set your location on the main map for personalized predictions.

高度履歴

Loading altitude history...

軌道要素

1 53262U 22086W 26175.19054255 -.00000431 00000-0 -90101-5 0 9994
2 53262 53.1603 75.8858 0001310 91.7672 268.3469 15.08831876217146
Epoch: Jun 24, 2026 • Age: 23 hours

現在のステータス

高度 552.9 km
速度 7.58 km/s
衛星直下点 -38.40°S, 43.3°W
打ち上げ日 Jul 24, 2022
運用期間 3.9 years
タイプ internet

技術仕様

分類 Payload
質量 297.00 kg
乾燥質量 275.00 kg
総質量 297.00 kg
長さ 0.20 m
直径 2.80 m
スパン 9.00 m
形状 Box + pan
製造者 SPXS
バスタイプ Starlink
フェーズステータス In Orbit
所有者/国 SPXS/US

Most Searched